This demonstration page uses our WeatherBlox Daily Observations layout. Learn more.

Left ArrowRight Arrow

39.12711, -84.51439

Hourly Observations for November 1, 2016

Temp ( °F °C ) Dew Point ( °F °C ) Humidity (%) Winds ( mph kmh ) Pressure ( in mb ) Visibility ( mi km ) Precip ( " mm )
12:53 am 00:53 Partly Cloudy 52 11.1 52 11.1 100 100 Calm 30.05 1018 10 16 0.00 0.00
1:53 am 01:53 Clear 50 10 50 10 100 100 Calm 30.06 1018 8 13 0.00 0.00
2:53 am 02:53 Clear 50 10 50 10 100 100 Calm 30.06 1018 7 11 0.00 0.00
3:53 am 03:53 Partly Cloudy with Mist and Fog 50 10 50 10 100 100 Calm 30.07 1018 6 10 0.00 0.00
4:53 am 04:53 Mostly Cloudy with Mist and Fog 50 10 50 10 100 100 Calm 30.06 1018 4 6 0.00 0.00
5:53 am 05:53 Mostly Clear with Mist and Fog 52 11.1 52 11.1 100 100 Calm 30.06 1018 6 10 0.00 0.00
6:53 am 06:53 Clear with Mist and Fog 51 10.6 51 10.6 100 100 Calm 30.07 1018 6 10 0.00 0.00
7:53 am 07:53 Mostly Cloudy 52 11.1 52 11.1 100 100 Calm 30.09 1019 7 11 0.00 0.00
8:53 am 08:53 Sunny 53 11.7 53 11.7 100 100 Calm 30.10 1019 7 11 0.00 0.00
9:53 am 09:53 Mostly Sunny 59 15 58 14.4 96 96 Calm 30.11 1020 8 13 0.00 0.00
10:53 am 10:53 Sunny 67 19.4 62 16.7 84 84 SSW 8 13 30.11 1020 10 16 0.00 0.00
11:53 am 11:53 Sunny 72 22.2 63 17.2 73 73 SSW 7 11 30.11 1020 10 16 0.00 0.00
12:53 pm 12:53 Sunny 77 25 62 16.7 60 60 SSW 13 20 30.09 1019 10 16 0.00 0.00
1:53 pm 13:53 Sunny 79 26.1 61 16.1 54 54 SW 13 20 30.06 1018 10 16 0.00 0.00
2:53 pm 14:53 Mostly Sunny 80 26.7 59 15 49 49 SW 20 31 30.05 1018 10 16 0.00 0.00
3:53 pm 15:53 Sunny 78 25.6 57 13.9 48 48 SW 17 28 30.05 1018 10 16 0.00 0.00
4:53 pm 16:53 Sunny 76 24.4 57 13.9 52 52 SW 12 19 30.05 1018 10 16 0.00 0.00
5:53 pm 17:53 Sunny 73 22.8 57 13.9 57 57 SSW 7 11 30.06 1018 10 16 0.00 0.00
6:53 pm 18:53 Clear 69 20.6 58 14.4 68 68 Calm 30.07 1018 10 16 0.00 0.03
7:53 pm 19:53 Clear 54 12 54 12 100 100 Calm 30.09 1019 10 16 0.00 0.00
8:53 pm 20:53 Clear 59 15 57 13.9 93 93 Calm 30.10 1019 10 16 0.00 0.00
9:53 pm 21:53 Clear 57 13.9 57 13.9 100 100 Calm 30.12 1020 10 16 0.00 0.00
10:53 pm 22:53 Clear 56 13.3 56 13.3 100 100 Calm 30.13 1020 9 14 0.00 0.00
11:53 pm 23:53 Clear 54 12.2 54 12.2 100 100 Calm 30.14 1021 7 11 0.00 0.00

Powered by AerisWeather